Location: Fond Mahaut
(18.0707°N, 63.0465°W)
Time: 12:25:17
(UTC+00:00)

Cosmos 1655 Rocket - Pass Details

Date: 08 December 2019
Orbit: 970 x 1006 km, 83.0° (Epoch: 24 January)

Event Time Altitude Azimuth Distance (km) Brightness Sun altitude
Rises 22:34:42 0° 171° (S) 3,716 7.2 -13.7°
Reaches altitude 10° 22:37:19 10° 166° (SSE) 2,765 6.4 -14.3°
Maximum altitude 22:43:26 52° 92° (E) 1,223 4.2 -15.6°
Drops below altitude 10° 22:49:31 10° 17° (NNE) 2,749 6.0 -17.0°
Enters shadow 22:50:59 - 14° (NNE) 3,287 6.4 -17.3°
